Hourly Data Report for January 28, 2017

PORT ALBERNI (AUT)
BRITISH COLUMBIA

49°18'59.700" N
124°55'36.600" W
76.20 m
1036B06
71475
WQC

Download Data

Hourly Data (January 2017)
Hourly Data Report for January 28, 2017
TIME
LST
Temp Definition
°C
Dew Point Definition
°C
Rel Hum Definition
%
Precip. Amount Definition
mm

Wind Dir Definition
10's deg

Wind Spd Definition
km/h
Visibility Definition
km
Stn Press Definition
kPa
Hmdx Definition


Wind Chill Definition


Weather Definition


00:00 3.1 2.9 99 0.0 28 4   102.61     LegendNANA
01:00 2.9 2.7 99 0.0 33 3   102.62     LegendNANA
02:00 2.6 2.4 99 0.0 36 4   102.66     LegendNANA
03:00 2.3 2.1 99 0.0 5 2   102.65     LegendNANA
04:00 2.2 2.0 99 0.0 31 4   102.67     LegendNANA
05:00 1.9 1.7 99 0.0 21 2   102.58     LegendNANA
06:00 1.8 1.6 99 0.0 25 2   102.53     LegendNANA
07:00 1.3 1.1 99 0.0 34 2   102.52     LegendNANA
08:00 1.3 1.1 99 0.0 34 2   102.50     LegendNANA
09:00 1.2 1.1 99 0.0 0 1   102.54     LegendNANA
10:00 1.5 1.3 99 0.0 36 2   102.54     LegendNANA
11:00 2.1 1.9 99 0.0 32 3   102.57     LegendNANA
12:00 2.8 2.5 98 0.0 30 4   102.51     LegendNANA
13:00 3.6 2.9 95 0.0 33 4   102.45     LegendNANA
14:00 4.2 3.3 94 0.0 8 2   102.35     LegendNANA
15:00 4.5 3.7 95 0.0 34 9   102.34     LegendNANA
16:00 4.5 3.9 96 0.0 14 7   102.21     LegendNANA
17:00 4.4 3.9 97 0.0 28 5   102.24     LegendNANA
18:00 4.1 3.7 97 0.0 6 3   102.18     LegendNANA
19:00 4.0 3.6 97 0.0 9 3   102.19     LegendNANA
20:00 3.9 3.5 98 0.0 16 7   102.18     LegendNANA
21:00 4.7 3.7 93 0.0 14 9   102.15     LegendNANA
22:00 5.6 3.6 87 0.0 13 11   102.11     LegendNANA
23:00 6.8 3.6 80 0.0 10 10   102.06     LegendNANA

Notes on Data Quality.

Legend

  • E = Estimated
  • M = Missing
  • NA = Not Available*
  • [empty] = Indicates an unobserved value
Date modified: